KJ4AJP Weather Reports


Display with metric or nautical units.
time (UTC)temp
F
wind
direction
speed
MPH
gust
MPH
rain 1hr
in
rain 24hr
in
rain mn
in
humidity
%
barometer
mb
20180919130002 71 179 2.0 4.0 0.00 0.00 0.00 99 1016.4
20180919125102 62 175 2.0 4.0 0.00 0.00 0.00 99 1016.2
20180919124202 70 154 1.0 4.0 0.00 0.00 0.00 99 1016.4
20180919123302 69 149 0.0 3.0 0.00 0.00 0.00 99 1016.2
20180919122402 69 152 1.0 2.0 0.00 0.00 0.00 99 1016.1
20180919121502 69 135 1.0 2.0 0.00 0.00 0.00 99 1016.1
20180919120603 69 135 1.0 2.0 0.00 0.00 0.00 99 1016.2
20180919115702 69 135 0.0 2.0 0.00 0.00 0.00 99 1016.1
20180919114802 69 1 0.0 1.0 0.00 0.00 0.00 99 1015.9
20180919113902 69 0 0.0 0.0 0.00 0.00 0.00 99 1016.1
20180919113002 69 1 0.0 2.0 0.00 0.00 0.00 99 1015.9
20180919112102 69 135 0.0 1.0 0.00 0.00 0.00 99 1016.0
20180919111202 69 152 0.0 2.0 0.00 0.00 0.00 99 1015.8
20180919110302 69 171 0.0 2.0 0.00 0.00 0.00 99 1015.8
20180919105402 69 135 0.0 1.0 0.00 0.00 0.00 99 1015.8
20180919104502 69 135 0.0 2.0 0.00 0.00 0.00 99 1015.6
20180919103602 69 138 0.0 2.0 0.00 0.00 0.00 99 1015.5
20180919102702 69 135 1.0 2.0 0.00 0.00 0.00 99 1015.4
20180919101802 69 135 0.0 2.0 0.00 0.00 0.00 99 1015.4
20180919100902 70 135 0.0 1.0 0.00 0.00 0.00 99 1015.2
20180919100002 70 135 0.0 2.0 0.00 0.00 0.00 99 1015.3
20180919095102 70 153 1.0 2.0 0.00 0.00 0.00 99 1015.1
20180919094202 70 0 0.0 0.0 0.00 0.00 0.00 99 1015.1
20180919093302 70 106 0.0 2.0 0.00 0.00 0.00 99 1015.1
20180919092403 70 109 0.0 2.0 0.00 0.00 0.00 99 1014.8
20180919090602 70 135 0.0 1.0 0.00 0.00 0.00 99 1014.8
20180919085702 70 129 0.0 2.0 0.00 0.00 0.00 99 1014.9
20180919084802 70 128 0.0 2.0 0.00 0.00 0.00 99 1014.7
20180919083902 70 125 1.0 2.0 0.00 0.00 0.00 99 1014.4
20180919083003 71 130 1.0 3.0 0.00 0.00 0.00 99 1014.5
20180919082102 71 111 2.0 2.0 0.00 0.00 0.00 99 1014.4
20180919081202 71 90 1.0 2.0 0.00 0.00 0.00 99 1014.4
20180919080302 71 112 1.0 2.0 0.00 0.00 0.00 99 1014.4
20180919075402 71 145 0.0 2.0 0.00 0.00 0.00 99 1014.4
20180919074502 71 143 0.0 2.0 0.00 0.00 0.00 99 1014.1
20180919073602 71 159 1.0 2.0 0.00 0.00 0.00 99 1014.4
20180919072702 71 152 1.0 2.0 0.00 0.00 0.00 99 1014.4
20180919071802 71 149 1.0 3.0 0.00 0.00 0.00 99 1014.3
20180919070902 71 139 2.0 4.0 0.00 0.00 0.00 99 1014.6
20180919070002 71 139 2.0 4.0 0.00 0.00 0.00 99 1014.5
20180919065102 71 136 2.0 4.0 0.00 0.00 0.00 99 1014.3
20180919064202 71 152 2.0 2.0 0.00 0.00 0.00 99 1014.3
20180919063302 71 181 0.0 2.0 0.00 0.00 0.00 99 1014.4
20180919062402 71 95 0.0 2.0 0.00 0.00 0.00 99 1014.3
20180919061502 71 112 1.0 2.0 0.00 0.00 0.00 99 1014.2
20180919060602 71 135 1.0 3.0 0.00 0.00 0.00 99 1014.3
20180919055702 71 135 2.0 2.0 0.00 0.00 0.00 99 1014.4
20180919054802 71 135 0.0 2.0 0.00 0.00 0.00 99 1014.5
20180919053902 71 0 0.0 0.0 0.00 0.00 0.00 99 1014.7
20180919053002 72 0 0.0 0.0 0.00 0.00 0.00 99 1014.7
20180919052102 72 0 0.0 0.0 0.00 0.00 0.00 99 1014.6
20180919051202 72 90 0.0 2.0 0.00 0.00 0.00 99 1014.8
20180919050302 72 90 1.0 2.0 0.00 0.00 0.00 99 1014.5
20180919045402 72 164 0.0 2.0 0.00 0.00 0.00 99 1014.5
20180919044502 72 165 0.0 2.0 0.00 0.00 0.00 99 1014.6
20180919043602 72 161 0.0 2.0 0.00 0.00 0.00 99 1014.5
20180919042702 72 135 1.0 2.0 0.00 0.00 0.00 99 1014.4
20180919041802 72 166 1.0 2.0 0.00 0.00 0.00 98 1014.4
20180919040902 72 181 1.0 2.0 0.00 0.00 0.00 97 1014.3
20180919040002 73 170 1.0 2.0 0.00 0.00 0.00 96 1014.4
20180919035102 73 135 0.0 1.0 0.00 0.00 0.00 95 1014.3
20180919034202 73 135 0.0 2.0 0.00 0.00 0.00 95 1014.5
20180919033302 73 135 0.0 2.0 0.00 0.00 0.00 94 1014.5
20180919032402 73 0 0.0 0.0 0.00 0.00 0.00 94 1014.6
20180919031502 74 0 0.0 0.0 0.00 0.00 0.00 92 1014.5
20180919030602 74 0 0.0 0.0 0.00 0.00 0.00 92 1014.5
20180919025702 74 0 0.0 0.0 0.00 0.00 0.00 91 1014.4
20180919024802 75 90 0.0 2.0 0.00 0.00 0.00 91 1014.4
20180919023902 75 90 0.0 1.0 0.00 0.00 0.00 90 1014.3
20180919023002 75 0 0.0 0.0 0.00 0.00 0.00 89 1014.6
20180919022102 76 0 0.0 0.0 0.00 0.00 0.00 88 1014.4
20180919021202 76 181 0.0 2.0 0.00 0.00 0.00 88 1014.4
20180919020302 77 181 1.0 2.0 0.00 0.00 0.00 87 1014.4
20180919015402 77 135 0.0 1.0 0.00 0.00 0.00 86 1014.3
20180919014502 78 135 0.0 2.0 0.00 0.00 0.00 85 1014.3
20180919013602 78 0 0.0 0.0 0.00 0.00 0.00 83 1014.2
20180919012702 79 0 0.0 0.0 0.00 0.00 0.00 83 1013.8
20180919011802 79 0 0.0 0.0 0.00 0.00 0.00 82 1014.0
20180919010902 80 0 0.0 0.0 0.00 0.00 0.00 81 1014.0
20180919010002 81 1 0.0 2.0 0.00 0.00 0.00 80 1014.1
20180919005102 81 343 1.0 2.0 0.00 0.00 0.00 77 1014.1
20180919004202 82 0 0.0 0.0 0.00 0.00 0.00 76 1014.0
20180919003302 83 223 0.0 4.0 0.00 0.00 0.00 75 1013.8
20180919002402 84 245 1.0 4.0 0.00 0.00 0.00 74 1013.7
20180919001502 85 250 1.0 3.0 0.00 0.00 0.00 73 1013.7
20180919000602 86 200 1.0 2.0 0.00 0.00 0.00 71 1013.9
20180918235702 87 173 1.0 3.0 0.00 0.00 0.00 70 1013.6
20180918234802 88 188 0.0 2.0 0.00 0.00 0.00 69 1013.6
20180918233902 89 181 0.0 1.0 0.00 0.00 0.00 69 1013.6
20180918233002 89 181 0.0 2.0 0.00 0.00 0.00 66 1013.7
20180918232102 90 210 0.0 2.0 0.00 0.00 0.00 66 1013.5
20180918231202 91 230 0.0 2.0 0.00 0.00 0.00 64 1013.6
20180918230302 93 247 0.0 2.0 0.00 0.00 0.00 61 1013.5
20180918225402 94 256 0.0 4.0 0.00 0.00 0.00 60 1013.5
20180918224502 95 252 2.0 4.0 0.00 0.00 0.00 60 1013.6
20180918223602 95 251 2.0 4.0 0.00 0.00 0.00 57 1013.4
20180918222702 96 235 1.0 5.0 0.00 0.00 0.00 58 1013.3
20180918221802 96 304 1.0 6.0 0.00 0.00 0.00 58 1013.6
20180918220913 96 231 2.0 4.0 0.00 0.00 0.00 58 1013.6
20180918220003 97 269 2.0 4.0 0.00 0.00 0.00 55 1013.3
20180918215102 97 262 1.0 2.0 0.00 0.00 0.00 56 1013.6
20180918214202 98 277 2.0 4.0 0.00 0.00 0.00 55 1013.6
20180918213305 114 331 1.0 4.0 0.00 0.00 0.00 56 1013.7
20180918212402 97 302 2.0 6.0 0.00 0.00 0.00 57 1013.5
20180918200302 96 40 2.0 3.0 0.00 0.00 0.00 62 1014.2
20180918195402 95 244 1.0 4.0 0.00 0.00 0.00 62 1014.0
20180918194510 96 242 1.0 4.0 0.00 0.00 0.00 60 1014.1
20180918193602 97 327 1.0 4.0 0.00 0.00 0.00 60 1014.3
20180918192701 96 307 1.0 4.0 0.00 0.00 0.00 61 1014.2
20180918191802 96 247 0.0 8.0 0.00 0.00 0.00 61 1014.3
20180918190902 97 246 2.0 8.0 0.00 0.00 0.00 59 1014.5
20180918190002 97 239 2.0 6.0 0.00 0.00 0.00 58 1014.6
20180918185101 98 295 1.0 4.0 0.00 0.00 0.00 61 1014.7
20180918184201 98 303 1.0 3.0 0.00 0.00 0.00 60 1014.7
20180918183314 98 290 2.0 4.0 0.00 0.00 0.00 59 1014.7
20180918182402 98 291 1.0 7.0 0.00 0.00 0.00 58 1015.1
20180918181502 97 152 0.0 4.0 0.00 0.00 0.00 60 1015.1
20180918180602 96 233 2.0 6.0 0.00 0.00 0.00 61 1015.2
20180918175701 96 211 4.0 7.0 0.00 0.00 0.00 60 1015.3
20180918174802 96 122 0.0 7.0 0.00 0.00 0.00 62 1015.4
20180918173901 96 195 2.0 8.0 0.00 0.00 0.00 60 1015.6
20180918173001 96 241 4.0 5.0 0.00 0.00 0.00 61 1015.6
20180918172101 96 286 2.0 4.0 0.00 0.00 0.00 63 1015.6
20180918171202 95 187 1.0 5.0 0.00 0.00 0.00 63 1015.8
20180918165108 95 213 2.0 5.0 0.00 0.00 0.00 66 1015.8
20180918164208 94 257 2.0 5.0 0.00 0.00 0.00 67 1016.1
20180918163308 94 272 2.0 8.0 0.00 0.00 0.00 68 1016.1
20180918162408 93 241 2.0 6.0 0.00 0.00 0.00 69 1016.3
20180918161509 92 217 2.0 5.0 0.00 0.00 0.00 70 1016.3
20180918160607 91 195 1.0 6.0 0.00 0.00 0.00 72 1016.3
20180918155708 91 219 4.0 6.0 0.00 0.00 0.00 73 1016.4
20180918154807 90 238 2.0 6.0 0.00 0.00 0.00 74 1016.1
20180918153908 89 229 2.0 7.0 0.00 0.00 0.00 75 1016.2
20180918153008 88 237 2.0 6.0 0.00 0.00 0.00 76 1016.4
20180918152108 88 268 4.0 5.0 0.00 0.00 0.00 78 1016.5
20180918151207 87 265 2.0 5.0 0.00 0.00 0.00 81 1016.6
20180918150308 85 263 2.0 5.0 0.00 0.00 0.00 82 1016.5
20180918145407 85 218 1.0 6.0 0.00 0.00 0.00 84 1016.6
20180918144513 83 238 2.0 4.0 0.00 0.00 0.00 87 1016.7
20180918143607 82 220 3.0 6.0 0.00 0.00 0.00 91 1016.5
20180918142713 81 233 3.0 4.0 0.00 0.00 0.00 95 1016.7
20180918141808 80 208 2.0 4.0 0.00 0.00 0.00 98 1016.4
20180918140908 78 184 2.0 4.0 0.00 0.00 0.00 99 1016.6
20180918140007 77 183 3.0 5.0 0.00 0.00 0.00 99 1016.7
20180918135107 75 207 2.0 4.0 0.00 0.00 0.00 99 1016.6
20180918134207 73 179 2.0 4.0 0.00 0.00 0.00 99 1016.5
20180918132557 71 184 2.0 4.0 0.00 0.00 0.00 99 1016.8